weather.gov     
National Weather Service

Terminal Aerodrome Forecast
NWS Homepage
This page is being discontinued on March 12, 2014.
The same data is available at this site. Please update your bookmarks.
Thank you, and we apologize for the inconvenience.
Please send an email to SR-SRH.Webmaster@noaa.gov with any concerns.


Current Version
Previous Version:    01  02  03  04  05  06  07  08  09  10  11  12  13  14  
[Printable]
445
FTUS41 KGYX 252326
TAFCON
TAF
KCON 252326Z 2600/2624 24005KT P6SM BKN050 BKN080
      TEMPO 2600/2603 -SHRA BKN050 OVC070
     FM260300 27006KT P6SM SCT050 BKN100
     FM261300 29010KT P6SM SCT050 BKN080
     FM261600 30013G20KT P6SM BKN050 BKN080=




445
FTUS41 KGYX 252326
TAFCON
TAF
KCON 252326Z 2600/2624 24005KT P6SM BKN050 BKN080
      TEMPO 2600/2603 -SHRA BKN050 OVC070
     FM260300 27006KT P6SM SCT050 BKN100
     FM261300 29010KT P6SM SCT050 BKN080
     FM261600 30013G20KT P6SM BKN050 BKN080=


U.S. Dept. of Commerce
NOAA National Weather Service
1325 East West Highway
Silver Spring, MD 20910
E-mail: w-nws.webmaster@noaa.gov
Page last modified: May 16, 2007
NATIONAL WEATHER SERVICE: for Safety, for Work, for Fun - FOR LIFE